SR9SMR Weather Reports


time (UTC)temp
C
wind
direction
speed
KPH
gust
KPH
rain 1hr
cm
rain 24hr
cm
rain mn
cm
humidity
%
barometer
mb
20260508013220 7 38 1.6 1.6 0.00 0.00 0.00 100 898.6
20260508013116 7 31 1.6 1.6 0.00 0.00 0.00 100 898.6
20260508012915 7 48 1.6 1.6 0.00 0.00 0.00 100 899.6
20260508012714 7 53 1.6 4.8 0.00 0.00 0.00 100 898.1
20260508012514 7 49 3.2 4.8 0.00 0.00 0.00 100 897.8
20260508012313 7 47 3.2 8.0 0.00 0.00 0.00 100 899.9
20260508012213 7 47 3.2 8.0 0.00 0.00 0.00 100 898.1
20260508012112 7 52 3.2 9.7 0.00 0.00 0.00 100 898.1
20260508011910 7 52 4.8 9.7 0.00 0.00 0.00 100 901.1
20260508011710 7 53 4.8 9.7 0.00 0.00 0.00 100 898.0
20260508011514 7 56 3.2 9.7 0.00 0.00 0.00 100 899.5
20260508011313 7 44 3.2 8.0 0.00 0.00 0.00 100 903.3
20260508011208 7 23 1.6 4.8 0.00 0.00 0.00 100 898.0
20260508011112 7 21 1.6 6.4 0.00 0.00 0.00 100 898.0
20260508010911 7 21 1.6 6.4 0.00 0.00 0.00 100 897.9
20260508010705 7 11 3.2 6.4 0.00 0.00 0.00 100 899.6
20260508010508 7 8 3.2 8.0 0.00 0.00 0.00 100 901.0
20260508010202 7 15 4.8 8.0 0.00 0.00 0.00 100 897.5
20260508005956 7 16 3.2 6.4 0.00 0.00 0.00 100 902.6
20260508005753 7 26 3.2 6.4 0.00 0.00 0.00 100 902.6
20260508005648 7 26 3.2 6.4 0.00 0.00 0.00 100 902.6
20260508005553 7 31 3.2 6.4 0.00 0.00 0.00 100 898.1
20260508005352 6 30 1.6 6.4 0.00 0.00 0.00 100 898.1
20260508005147 7 26 1.6 6.4 0.00 0.00 0.00 100 901.3
20260508004951 7 18 3.2 6.4 0.00 0.00 0.00 100 898.5
20260508004751 7 15 3.2 8.0 0.00 0.00 0.00 100 900.7
20260508004646 7 15 3.2 8.0 0.00 0.00 0.00 100 898.8
20260508004550 7 15 3.2 8.0 0.00 0.00 0.00 100 898.2
20260508004348 7 21 3.2 6.4 0.00 0.00 0.00 100 902.2
20260508004142 7 27 3.2 6.4 0.00 0.00 0.00 100 897.5
20260508003946 7 25 3.2 6.4 0.00 0.00 0.00 100 898.4
20260508003744 7 19 3.2 4.8 0.00 0.00 0.00 100 900.4
20260508003639 7 19 3.2 6.4 0.00 0.00 0.00 100 899.5
20260508003543 7 20 3.2 6.4 0.00 0.00 0.00 100 902.9
20260508003342 7 19 3.2 6.4 0.00 0.00 0.00 100 897.5
20260508003137 7 22 3.2 6.4 0.00 0.00 0.00 100 898.1
20260508002940 7 26 3.2 6.4 0.00 0.00 0.00 100 899.6
20260508002739 7 33 3.2 6.4 0.00 0.00 0.00 100 901.2
20260508002634 7 33 3.2 6.4 0.00 0.00 0.00 100 897.9
20260508002538 7 40 3.2 6.4 0.00 0.00 0.00 100 898.2
20260508002337 7 48 3.2 6.4 0.00 0.00 0.00 100 900.2
20260508002131 7 59 3.2 4.8 0.00 0.00 0.00 100 900.4
20260508001935 7 62 3.2 4.8 0.00 0.00 0.00 100 898.0
20260508001733 7 57 3.2 3.2 0.00 0.00 0.00 100 898.3
20260508001628 7 51 1.6 3.2 0.00 0.00 0.00 100 898.7
20260508001531 7 51 1.6 3.2 0.00 0.00 0.00 100 900.7
20260508001331 7 127 1.6 4.8 0.00 0.00 0.00 100 902.4
20260508001126 7 138 1.6 4.8 0.00 0.00 0.00 100 898.7
20260508000929 7 111 1.6 6.4 0.00 0.00 0.00 100 903.3
20260508000728 7 67 1.6 6.4 0.00 0.00 0.00 100 898.5
20260508000624 7 48 1.6 3.2 0.00 0.00 0.00 100 899.1
20260508000527 7 17 1.6 3.2 0.00 0.00 0.00 100 899.1
20260508000327 7 28 1.6 4.8 0.00 0.00 0.00 100 903.3
20260508000120 7 42 3.2 6.4 0.00 0.00 0.00 100 897.9
20260507235924 7 37 4.8 9.7 0.00 0.00 0.00 100 900.5
20260507235723 7 31 4.8 9.7 0.00 0.00 0.00 100 899.9
20260507235619 7 33 3.2 9.7 0.00 0.00 0.00 100 899.5
20260507235523 7 37 4.8 8.0 0.00 0.00 0.00 100 899.5
20260507235322 7 49 4.8 9.7 0.00 0.00 0.00 100 898.2
20260507235118 7 49 4.8 9.7 0.00 0.00 0.00 100 902.4
20260507234920 7 45 6.4 12.9 0.00 0.00 0.00 100 900.0
20260507234719 7 48 4.8 12.9 0.00 0.00 0.00 100 900.3
20260507234615 7 52 6.4 12.9 0.00 0.00 0.00 100 896.9
20260507234518 7 61 6.4 9.7 0.00 0.00 0.00 100 897.4
20260507234317 7 74 6.4 11.3 0.00 0.00 0.00 100 898.8
20260507234113 7 84 6.4 11.3 0.00 0.00 0.00 100 901.4
20260507233915 7 78 4.8 9.7 0.00 0.00 0.00 100 899.4
20260507233714 7 70 4.8 8.0 0.00 0.00 0.00 100 902.4
20260507233609 7 66 4.8 8.0 0.00 0.00 0.00 100 897.0
20260507233512 7 66 4.8 6.4 0.00 0.00 0.00 100 897.0
20260507233311 7 64 4.8 6.4 0.00 0.00 0.00 100 899.9
20260507233206 7 60 3.2 6.4 0.00 0.00 0.00 100 903.6
20260507233105 7 59 3.2 6.4 0.00 0.00 0.00 100 903.6
20260507232953 7 33 3.2 6.4 0.00 0.00 0.00 100 897.3
20260507232900 7 22 1.6 4.8 0.00 0.00 0.00 100 897.8
20260507232752 7 18 1.6 4.8 0.00 0.00 0.00 100 898.7
20260507232700 7 17 1.6 4.8 0.00 0.00 0.00 100 900.7
20260507232551 7 17 1.6 4.8 0.00 0.00 0.00 100 902.9
20260507232459 7 20 1.6 4.8 0.00 0.00 0.00 100 900.4
20260507232350 7 25 1.6 3.2 0.00 0.00 0.00 100 902.2
20260507232258 7 24 1.6 3.2 0.00 0.00 0.00 100 898.3
20260507232150 7 28 1.6 4.8 0.00 0.00 0.00 100 898.8
20260507232050 7 27 1.6 4.8 0.00 0.00 0.00 100 902.4
20260507231937 7 31 1.6 4.8 0.00 0.00 0.00 100 902.4
20260507231846 7 31 1.6 4.8 0.00 0.00 0.00 100 898.2
20260507231735 7 33 1.6 4.8 0.00 0.00 0.00 100 898.5
20260507231645 7 31 1.6 4.8 0.00 0.00 0.00 100 898.5
20260507231535 7 31 1.6 4.8 0.00 0.00 0.00 100 901.1
20260507231445 7 30 1.6 4.8 0.00 0.00 0.00 100 903.5
20260507231334 7 20 1.6 3.2 0.00 0.00 0.00 100 898.8
20260507231243 7 347 1.6 6.4 0.00 0.00 0.00 100 900.1
20260507231133 7 316 1.6 6.4 0.00 0.00 0.00 100 902.7
20260507231033 7 301 1.6 6.4 0.00 0.00 0.00 100 898.4
20260507230933 7 314 1.6 6.4 0.00 0.00 0.00 100 898.4
20260507230842 7 340 1.6 6.4 0.00 0.00 0.00 100 898.6
20260507230732 7 340 1.6 4.8 0.00 0.00 0.00 100 899.3
20260507230642 7 5 1.6 4.8 0.00 0.00 0.00 100 900.6
20260507230531 7 13 1.6 4.8 0.00 0.00 0.00 100 904.7
20260507230441 7 10 3.2 4.8 0.00 0.00 0.00 100 904.7
20260507230331 7 8 3.2 9.7 0.00 0.00 0.00 100 898.6
20260507230241 7 356 4.8 11.3 0.00 0.00 0.00 100 899.7
20260507230131 7 351 4.8 11.3 0.00 0.00 0.00 100 903.2
20260507230031 7 353 6.4 11.3 0.00 0.00 0.00 100 898.2
20260507225930 7 351 4.8 11.3 0.00 0.00 0.00 100 900.1
20260507225840 7 359 4.8 8.0 0.00 0.00 0.00 100 903.0
20260507225729 7 2 4.8 8.0 0.00 0.00 0.00 100 897.9
20260507225639 7 15 4.8 8.0 0.00 0.00 0.00 100 900.0
20260507225528 7 15 4.8 8.0 0.00 0.00 0.00 100 898.8
20260507225437 7 16 4.8 8.0 0.00 0.00 0.00 100 898.8
20260507225327 7 16 4.8 11.3 0.00 0.00 0.00 100 900.1
20260507225237 7 19 4.8 12.9 0.00 0.00 0.00 100 900.1
20260507225126 7 19 4.8 12.9 0.00 0.00 0.00 100 897.3
20260507225027 7 16 4.8 12.9 0.00 0.00 0.00 100 901.5
20260507224926 7 13 4.8 12.9 0.00 0.00 0.00 100 901.5
20260507224836 7 13 4.8 9.7 0.00 0.00 0.00 100 904.9
20260507224725 7 8 4.8 9.7 0.00 0.00 0.00 100 896.9
20260507224634 7 8 4.8 9.7 0.00 0.00 0.00 100 898.1
20260507224524 7 9 4.8 8.0 0.00 0.00 0.00 100 904.7
20260507224433 7 13 3.2 8.0 0.00 0.00 0.00 100 904.7
20260507224323 7 13 3.2 6.4 0.00 0.00 0.00 100 899.9
20260507224233 7 13 3.2 6.4 0.00 0.00 0.00 100 899.9
20260507224122 7 20 1.6 3.2 0.00 0.00 0.00 100 898.5
20260507224023 7 32 1.6 3.2 0.00 0.00 0.00 100 898.5
20260507223921 7 48 1.6 4.8 0.00 0.00 0.00 100 900.7
20260507223830 7 48 3.2 6.4 0.00 0.00 0.00 100 905.5
20260507223720 7 54 3.2 6.4 0.00 0.00 0.00 100 897.4
20260507223629 7 39 3.2 9.7 0.00 0.00 0.00 100 897.4
20260507223519 7 32 3.2 9.7 0.00 0.00 0.00 100 900.9
20260507223428 7 28 3.2 11.3 0.00 0.00 0.00 100 897.2
20260507223318 7 26 4.8 11.3 0.00 0.00 0.00 100 897.2
20260507223227 7 26 4.8 12.9 0.00 0.00 0.00 100 897.2
20260507223116 7 24 6.4 12.9 0.00 0.00 0.00 100 899.3
20260507223015 7 25 6.4 12.9 0.00 0.00 0.00 100 901.3
20260507222912 7 26 6.4 12.9 0.00 0.00 0.00 100 896.8
20260507222710 7 42 6.4 12.9 0.00 0.00 0.00 100 899.1
20260507222509 7 60 4.8 8.0 0.00 0.00 0.00 100 897.1
20260507222306 7 0 3.2 8.0 0.00 0.00 0.00 100 905.1
20260507222102 7 251 3.2 11.3 0.00 0.00 0.00 100 898.1
20260507222000 7 251 4.8 11.3 0.00 0.00 0.00 100 901.0
20260507221858 7 249 4.8 12.9 0.00 0.00 0.00 100 901.8
20260507221658 7 254 4.8 12.9 0.00 0.00 0.00 100 897.7
20260507221456 7 262 3.2 12.9 0.00 0.00 0.00 100 900.6
20260507221256 7 271 3.2 6.4 0.00 0.00 0.00 100 898.3
20260507221055 7 292 3.2 6.4 0.00 0.00 0.00 100 899.2
20260507220955 7 319 3.2 8.0 0.00 0.00 0.00 100 899.2
20260507220854 7 2 3.2 8.0 0.00 0.00 0.00 100 899.3
20260507220653 7 14 3.2 9.7 0.00 0.00 0.00 100 903.2
20260507220452 7 11 4.8 16.1 0.00 0.00 0.00 100 897.6
20260507220252 7 14 6.4 16.1 0.00 0.00 0.00 100 899.2
20260507220050 7 22 6.4 19.3 0.00 0.00 0.00 100 902.0
20260507215951 7 28 6.4 19.3 0.00 0.00 0.00 100 896.8
20260507215849 7 45 8.0 19.3 0.00 0.00 0.00 100 897.6
20260507215648 7 55 8.0 19.3 0.00 0.00 0.00 100 904.7
20260507215446 7 59 8.0 17.7 0.00 0.00 0.00 100 897.0
20260507215246 7 57 9.7 20.9 0.00 0.00 0.00 100 898.6
20260507215044 7 49 8.0 20.9 0.00 0.00 0.00 100 897.3
20260507214945 7 52 8.0 14.5 0.00 0.00 0.00 100 897.3
20260507214843 7 52 8.0 14.5 0.00 0.00 0.00 100 896.6
20260507214640 7 46 8.0 16.1 0.00 0.00 0.00 100 902.2
20260507214436 7 39 6.4 16.1 0.00 0.00 0.00 100 896.6
20260507214234 7 41 6.4 16.1 0.00 0.00 0.00 100 904.7
20260507214031 7 38 6.4 16.1 0.00 0.00 0.00 100 896.5
20260507213931 8 32 4.8 11.3 0.00 0.00 0.00 100 896.5
20260507213830 8 29 4.8 11.3 0.00 0.00 0.00 100 897.1
20260507213735 7 27 4.8 12.9 0.00 0.00 0.00 100 899.0
20260507213629 7 26 4.8 12.9 0.00 0.00 0.00 100 905.3
20260507213534 8 27 4.8 12.9 0.00 0.00 0.00 100 899.6
20260507213428 7 29 6.4 12.9 0.00 0.00 0.00 100 896.9
20260507213333 7 29 6.4 16.1 0.00 0.00 0.00 100 899.8
20260507213227 8 26 6.4 16.1 0.00 0.00 0.00 100 905.6
20260507213132 8 23 6.4 16.1 0.00 0.00 0.00 100 896.4
20260507213026 8 21 6.4 16.1 0.00 0.00 0.00 100 898.2
20260507212927 8 21 6.4 16.1 0.00 0.00 0.00 100 898.2
20260507212826 8 21 6.4 12.9 0.00 0.00 0.00 100 904.2
20260507212730 8 24 4.8 12.9 0.00 0.00 0.00 100 900.3
20260507212624 8 20 4.8 9.7 0.00 0.00 0.00 100 896.9
20260507212529 8 17 4.8 9.7 0.00 0.00 0.00 100 897.3
20260507212424 8 10 4.8 11.3 0.00 0.00 0.00 100 899.1
20260507212328 8 5 6.4 17.7 0.00 0.00 0.00 100 902.6
20260507212223 8 0 8.0 17.7 0.00 0.00 0.00 100 901.4
20260507212128 8 354 8.0 17.7 0.00 0.00 0.00 100 897.0
20260507212022 8 356 8.0 17.7 0.00 0.00 0.00 100 897.0
20260507211923 8 356 6.4 16.1 0.00 0.00 0.00 100 899.2
20260507211821 8 354 6.4 16.1 0.00 0.00 0.00 100 903.6
20260507211725 8 354 6.4 16.1 0.00 0.00 0.00 100 903.6
20260507211620 8 339 6.4 16.1 0.00 0.00 0.00 100 902.5
20260507211524 8 332 4.8 16.1 0.00 0.00 0.00 100 897.2
20260507211419 8 317 3.2 14.5 0.00 0.00 0.00 100 897.7
20260507211324 8 302 3.2 11.3 0.00 0.00 0.00 100 898.5
20260507211219 8 298 3.2 11.3 0.00 0.00 0.00 100 900.4
20260507211124 8 296 4.8 11.3 0.00 0.00 0.00 100 901.9
20260507211018 8 282 6.4 11.3 0.00 0.00 0.00 100 898.8
20260507210918 8 282 6.4 11.3 0.00 0.00 0.00 100 902.1
20260507210814 8 266 4.8 9.7 0.00 0.00 0.00 100 897.7
20260507210721 8 251 4.8 8.0 0.00 0.00 0.00 100 898.4
20260507210613 8 246 4.8 8.0 0.00 0.00 0.00 100 901.4
20260507210521 8 245 4.8 8.0 0.00 0.00 0.00 100 901.4
20260507210412 8 242 6.4 8.0 0.00 0.00 0.00 100 897.6
20260507210320 8 242 6.4 8.0 0.00 0.00 0.00 100 899.9
20260507210212 8 240 4.8 8.0 0.00 0.00 0.00 100 899.9
20260507210119 8 239 4.8 8.0 0.00 0.00 0.00 100 897.9
20260507210011 8 239 4.8 6.4 0.00 0.00 0.00 100 898.8
20260507205912 8 238 3.2 6.4 0.00 0.00 0.00 100 899.6
20260507205811 8 238 3.2 6.4 0.00 0.00 0.00 100 899.6
20260507205718 8 238 3.2 6.4 0.00 0.00 0.00 100 897.9
20260507205610 8 235 3.2 6.4 0.00 0.00 0.00 100 898.5
20260507205517 8 239 3.2 6.4 0.00 0.00 0.00 100 902.2
20260507205409 8 239 3.2 6.4 0.00 0.00 0.00 100 902.2
20260507205317 8 244 3.2 6.4 0.00 0.00 0.00 100 902.2
20260507205209 8 243 3.2 6.4 0.00 0.00 0.00 100 898.0
20260507205116 8 245 3.2 4.8 0.00 0.00 0.00 100 899.1
20260507205008 8 245 3.2 4.8 0.00 0.00 0.00 100 904.0
20260507204908 8 258 3.2 4.8 0.00 0.00 0.00 100 897.8
20260507204806 8 272 3.2 4.8 0.00 0.00 0.00 100 898.5
20260507204713 8 287 3.2 4.8 0.00 0.00 0.00 100 898.5
20260507204606 8 287 3.2 4.8 0.00 0.00 0.00 100 900.2
20260507204513 8 298 3.2 4.8 0.00 0.00 0.00 100 902.3
20260507204405 8 316 3.2 4.8 0.00 0.00 0.00 100 897.5
20260507204301 8 320 3.2 4.8 0.00 0.00 0.00 100 897.3
20260507204153 8 324 3.2 4.8 0.00 0.00 0.00 100 897.5
20260507204100 8 336 1.6 4.8 0.00 0.00 0.00 100 897.5
20260507203953 8 344 3.2 4.8 0.00 0.00 0.00 100 898.7
20260507203854 8 350 1.6 4.8 0.00 0.00 0.00 100 901.9
20260507203752 8 353 3.2 4.8 0.00 0.00 0.00 100 901.9
20260507203659 8 351 3.2 6.4 0.00 0.00 0.00 100 899.0
20260507203550 8 1 3.2 6.4 0.00 0.00 0.00 100 901.1
20260507203457 8 6 3.2 8.0 0.00 0.00 0.00 100 897.3
20260507203349 8 6 3.2 8.0 0.00 0.00 0.00 100 897.4
20260507203255 8 6 3.2 8.0 0.00 0.00 0.00 100 898.2
20260507203148 8 2 1.6 4.8 0.00 0.00 0.00 100 901.9
20260507203054 8 322 1.6 4.8 0.00 0.00 0.00 100 899.6
20260507202947 8 299 1.6 4.8 0.00 0.00 0.00 100 900.7
20260507202854 8 299 1.6 4.8 0.00 0.00 0.00 100 900.7
20260507202847 8 299 1.6 4.8 0.00 0.00 0.00 100 897.3
20260507202746 8 304 1.6 4.8 0.00 0.00 0.00 100 897.3
20260507202652 8 338 3.2 4.8 0.00 0.00 0.00 100 897.6
20260507202544 8 359 3.2 6.4 0.00 0.00 0.00 100 897.6
20260507202450 8 6 3.2 8.0 0.00 0.00 0.00 100 898.7
20260507202344 8 6 3.2 8.0 0.00 0.00 0.00 100 903.2
20260507202250 8 335 3.2 8.0 0.00 0.00 0.00 100 898.6
20260507202143 8 323 3.2 8.0 0.00 0.00 0.00 100 901.6
20260507202049 8 315 3.2 8.0 0.00 0.00 0.00 100 897.5
20260507201941 8 307 3.2 8.0 0.00 0.00 0.00 100 897.5
20260507201842 8 307 3.2 8.0 0.00 0.00 0.00 100 897.7
20260507201740 8 316 3.2 8.0 0.00 0.00 0.00 100 897.6
20260507201646 8 311 3.2 9.7 0.00 0.00 0.00 100 897.6
20260507201539 8 299 3.2 9.7 0.00 0.00 0.00 100 898.0
20260507201446 8 299 3.2 9.7 0.00 0.00 0.00 100 899.8
20260507201338 8 260 1.6 4.8 0.00 0.00 0.00 100 903.4
20260507201244 8 247 1.6 4.8 0.00 0.00 0.00 100 904.7
20260507201136 8 275 3.2 8.0 0.00 0.00 0.00 100 897.9
20260507201043 8 290 3.2 9.7 0.00 0.00 0.00 100 897.6
20260507200936 8 297 3.2 9.7 0.00 0.00 0.00 100 897.3
20260507200837 8 297 4.8 9.7 0.00 0.00 0.00 100 897.2
20260507200735 8 296 4.8 11.3 0.00 0.00 0.00 100 898.1
20260507200642 8 294 4.8 16.1 0.00 0.00 0.00 100 900.4
20260507200534 8 294 6.4 16.1 0.00 0.00 0.00 100 900.4
20260507200440 8 295 6.4 16.1 0.00 0.00 0.00 100 900.4
20260507200333 8 296 4.8 16.1 0.00 0.00 0.00 100 898.4
20260507200240 8 305 3.2 11.3 0.00 0.00 0.00 100 898.4
20260507200132 8 327 3.2 11.3 0.00 0.00 0.00 100 897.7
20260507200038 8 327 3.2 11.3 0.00 0.00 0.00 100 898.5
20260507195930 8 330 3.2 11.3 0.00 0.00 0.00 100 901.1
20260507195831 8 329 3.2 14.5 0.00 0.00 0.00 100 901.1
20260507195730 8 315 4.8 14.5 0.00 0.00 0.00 100 898.4
20260507195636 8 312 6.4 16.1 0.00 0.00 0.00 100 901.1
20260507195529 8 299 6.4 16.1 0.00 0.00 0.00 100 897.5
20260507195435 8 299 6.4 16.1 0.00 0.00 0.00 100 897.5
20260507195328 8 306 4.8 14.5 0.00 0.00 0.00 100 898.9
20260507195235 8 310 4.8 14.5 0.00 0.00 0.00 100 898.9
20260507195128 8 301 6.4 14.5 0.00 0.00 0.00 100 902.1
20260507195034 8 300 8.0 20.9 0.00 0.00 0.00 100 897.1
20260507194926 8 294 9.7 20.9 0.00 0.00 0.00 100 898.5
20260507194827 8 294 11.3 20.9 0.00 0.00 0.00 100 902.8
20260507194725 8 291 11.3 20.9 0.00 0.00 0.00 100 898.4
20260507194631 8 291 9.7 20.9 0.00 0.00 0.00 100 896.3
20260507194524 8 291 9.7 20.9 0.00 0.00 0.00 100 896.3
20260507194430 8 295 8.0 14.5 0.00 0.00 0.00 100 897.3
20260507194323 8 297 8.0 17.7 0.00 0.00 0.00 100 899.7
20260507194229 8 296 8.0 17.7 0.00 0.00 0.00 100 903.8
20260507194122 8 297 8.0 17.7 0.00 0.00 0.00 100 896.6
20260507194029 8 297 6.4 17.7 0.00 0.00 0.00 100 896.6
20260507193922 9 296 4.8 14.5 0.00 0.00 0.00 100 896.6
20260507193823 9 274 4.8 14.5 0.00 0.00 0.00 100 897.2
20260507193721 9 248 4.8 14.5 0.00 0.00 0.00 100 897.8
20260507193627 10 238 8.0 16.1 0.00 0.00 0.00 100 899.0
20260507193520 9 238 12.9 25.7 0.00 0.00 0.00 100 903.0
20260507193425 9 234 14.5 25.7 0.00 0.00 0.00 100 897.8
20260507193319 10 230 17.7 25.7 0.00 0.00 0.00 100 896.2
20260507193224 10 231 17.7 27.4 0.00 0.00 0.00 100 897.3
20260507193116 10 230 17.7 27.4 0.00 0.00 0.00 100 902.3
20260507193022 10 229 17.7 27.4 0.00 0.00 0.00 100 900.4
20260507192916 10 229 19.3 27.4 0.00 0.00 0.00 100 896.1
20260507192816 10 229 19.3 27.4 0.00 0.00 0.00 100 896.1
20260507192716 10 229 19.3 27.4 0.00 0.00 0.00 100 897.7
20260507192621 10 226 17.7 27.4 0.00 0.00 0.00 100 901.1
20260507192514 10 226 19.3 29.0 0.00 0.00 0.00 100 899.5
20260507192420 10 225 19.3 29.0 0.00 0.00 0.00 100 898.6
20260507192314 10 224 19.3 29.0 0.00 0.00 0.00 100 897.7
20260507192219 10 224 19.3 29.0 0.00 0.00 0.00 100 898.6
20260507192112 10 227 19.3 29.0 0.00 0.00 0.00 100 898.5
20260507192018 10 227 19.3 29.0 0.00 0.00 0.00 100 898.6
20260507191912 10 226 19.3 29.0 0.00 0.00 0.00 100 899.4
20260507191818 10 226 19.3 29.0 0.00 0.00 0.00 100 899.4
20260507191812 10 226 19.3 29.0 0.00 0.00 0.00 100 896.2
20260507191711 10 224 19.3 29.0 0.00 0.00 0.00 100 896.2
20260507191617 10 224 19.3 29.0 0.00 0.00 0.00 100 900.3
20260507191510 10 225 20.9 27.4 0.00 0.00 0.00 100 900.3
20260507191416 10 226 20.9 30.6 0.00 0.00 0.00 100 898.8
20260507191309 10 227 20.9 30.6 0.00 0.00 0.00 100 895.5
20260507191216 10 226 20.9 30.6 0.00 0.00 0.00 100 899.2
20260507191108 9 226 19.3 30.6 0.00 0.00 0.00 100 901.7
20260507191014 9 222 17.7 29.0 0.00 0.00 0.00 100 895.6
20260507190907 10 222 17.7 29.0 0.00 0.00 0.00 100 896.8
20260507190808 9 223 17.7 29.0 0.00 0.00 0.00 100 901.8
20260507190707 9 223 19.3 29.0 0.00 0.00 0.00 100 898.6
20260507190613 9 224 19.3 29.0 0.00 0.00 0.00 100 898.6
20260507190506 10 228 19.3 29.0 0.00 0.00 0.00 100 898.6
20260507190412 10 227 19.3 29.0 0.00 0.00 0.00 100 896.5
20260507190305 10 227 20.9 32.2 0.00 0.00 0.00 100 900.8
20260507190209 10 229 20.9 30.6 0.00 0.00 0.00 100 903.3
20260507190103 10 228 22.5 33.8 0.00 0.00 0.00 100 895.4
20260507190009 10 226 22.5 33.8 0.00 0.00 0.00 100 897.8
20260507185903 10 228 22.5 33.8 0.00 0.00 0.00 100 897.8
20260507185803 10 225 22.5 33.8 0.00 0.00 0.00 100 900.5
20260507185701 10 226 24.1 35.4 0.00 0.00 0.00 100 895.7
20260507185607 10 224 24.1 35.4 0.00 0.00 0.00 100 895.7
20260507185500 10 224 24.1 35.4 0.00 0.00 0.00 100 904.7
20260507185406 10 225 22.5 35.4 0.00 0.00 0.00 100 904.7
20260507185259 10 228 22.5 30.6 0.00 0.00 0.00 100 897.3
20260507185204 10 229 22.5 30.6 0.00 0.00 0.00 100 895.5
20260507185058 10 230 22.5 35.4 0.00 0.00 0.00 100 896.9
20260507185003 10 228 22.5 35.4 0.00 0.00 0.00 100 901.8
20260507184857 10 227 22.5 35.4 0.00 0.00 0.00 100 897.4
20260507184758 10 227 22.5 35.4 0.00 0.00 0.00 100 896.0
20260507184602 10 227 22.5 32.2 0.00 0.00 0.00 100 904.0
20260507184401 10 226 22.5 29.0 0.00 0.00 0.00 100 895.8
20260507184256 10 226 20.9 30.6 0.00 0.00 0.00 100 897.9
20260507184200 10 226 20.9 29.0 0.00 0.00 0.00 100 897.9
20260507183749 10 224 22.5 33.8 0.00 0.00 0.00 100 899.7
20260507183239 10 224 19.3 29.0 0.00 0.00 0.00 100 899.9
20260507182736 10 224 19.3 30.6 0.00 0.00 0.00 100 897.7
20260507182234 10 221 19.3 29.0 0.00 0.00 0.00 100 900.0
20260507181730 10 222 17.7 27.4 0.00 0.00 0.00 100 900.6
20260507181218 10 219 16.1 25.7 0.00 0.00 0.00 100 900.8
20260507180820 10 219 14.5 24.1 0.00 0.00 0.00 100 901.3
20260507180715 9 219 14.5 24.1 0.00 0.00 0.00 100 900.4
20260507180213 10 208 12.9 24.1 0.00 0.00 0.00 100 895.5
20260507175711 10 208 12.9 22.5 0.00 0.00 0.00 100 895.3
20260507175207 10 207 12.9 22.5 0.00 0.00 0.00 100 900.2
20260507174705 10 207 14.5 25.7 0.00 0.00 0.00 100 898.9
20260507174203 10 211 12.9 24.1 0.00 0.00 0.00 100 896.2
20260507173702 10 209 14.5 27.4 0.00 0.00 0.00 100 895.5
20260507173159 10 210 14.5 24.1 0.00 0.00 0.00 100 895.3
20260507172657 10 208 16.1 24.1 0.00 0.00 0.00 100 895.4
20260507172155 10 210 16.1 29.0 0.00 0.00 0.00 100 896.5
20260507171653 10 207 12.9 29.0 0.00 0.00 0.00 100 895.7
20260507171152 10 209 14.5 25.7 0.00 0.00 0.00 100 896.3
20260507170649 10 208 16.1 24.1 0.00 0.00 0.00 100 895.5
20260507170147 10 207 16.1 24.1 0.00 0.00 0.00 100 897.5
20260507165747 10 205 16.1 24.1 0.00 0.00 0.00 100 898.1
20260507165643 10 205 16.1 24.1 0.00 0.00 0.00 100 895.3
20260507165348 10 208 14.5 22.5 0.00 0.00 0.00 100 896.6
20260507165147 10 208 14.5 25.7 0.00 0.00 0.00 100 895.5
20260507165018 10 210 16.1 25.7 0.00 0.00 0.00 100 900.4
20260507164749 10 213 14.5 22.5 0.00 0.00 0.00 100 897.4
20260507164520 10 208 12.9 25.7 0.00 0.00 0.00 100 899.6
20260507164512 10 208 12.9 25.7 0.00 0.00 0.00 100 895.1
20260507164010 8 199 9.7 16.1 0.00 0.00 0.00 100 899.9
20260507163507 8 195 11.3 16.1 0.00 0.00 0.00 100 895.2
20260507163314 8 192 11.3 14.5 0.00 0.00 0.00 100 897.0
20260507163004 8 201 11.3 17.7 0.00 0.00 0.00 100 899.9
20260507162901 8 201 12.9 17.7 0.00 0.00 0.00 100 899.9
20260507162659 8 201 14.5 17.7 0.00 0.00 0.00 100 895.4
20260507162459 8 200 14.5 19.3 0.00 0.00 0.00 100 900.3
20260507162257 8 199 14.5 19.3 0.00 0.00 0.00 100 895.4
20260507162056 8 194 12.9 19.3 0.00 0.00 0.00 100 898.5
20260507161957 8 192 12.9 16.1 0.00 0.00 0.00 100 903.9
20260507161745 8 185 11.3 16.1 0.00 0.00 0.00 100 896.5
20260507161621 8 183 9.7 14.5 0.00 0.00 0.00 100 897.4
20260507161420 8 187 9.7 14.5 0.00 0.00 0.00 100 895.9
20260507161219 8 190 9.7 14.5 0.00 0.00 0.00 100 896.6
20260507161017 8 198 11.3 16.1 0.00 0.00 0.00 100 903.0
20260507160811 8 205 12.9 19.3 0.00 0.00 0.00 100 896.3
20260507160710 8 206 12.9 19.3 0.00 0.00 0.00 100 895.0
20260507160458 8 214 12.9 19.3 0.00 0.00 0.00 100 897.2
20260507160256 8 208 14.5 19.3 0.00 0.00 0.00 100 894.3
20260507160055 8 206 14.5 20.9 0.00 0.00 0.00 100 899.2
20260507155954 8 205 14.5 20.9 0.00 0.00 0.00 100 901.2
20260507155851 8 205 14.5 24.1 0.00 0.00 0.00 100 894.8
20260507155646 8 205 17.7 27.4 0.00 0.00 0.00 100 895.8
20260507155611 8 205 17.7 27.4 0.00 0.00 0.00 100 895.8
20260507155444 8 205 16.1 27.4 0.00 0.00 0.00 100 897.6
20260507155348 8 206 16.1 22.5 0.00 0.00 0.00 100 899.2
20260507155243 8 208 16.1 22.5 0.00 0.00 0.00 100 899.2
20260507155145 8 208 16.1 22.5 0.00 0.00 0.00 100 895.7
20260507155042 8 209 14.5 22.5 0.00 0.00 0.00 100 899.7
20260507154942 8 204 12.9 22.5 0.00 0.00 0.00 100 896.6
20260507154838 8 202 12.9 19.3 0.00 0.00 0.00 100 896.6
20260507154745 8 200 12.9 19.3 0.00 0.00 0.00 100 897.1
20260507154637 8 202 14.5 19.3 0.00 0.00 0.00 100 897.1
20260507154542 8 211 14.5 19.3 0.00 0.00 0.00 100 895.9
20260507154437 8 211 14.5 19.3 0.00 0.00 0.00 100 897.3
20260507154342 8 223 16.1 22.5 0.00 0.00 0.00 100 897.4
20260507154236 8 234 16.1 24.1 0.00 0.00 0.00 100 897.4
20260507154141 8 238 16.1 25.7 0.00 0.00 0.00 100 898.2
20260507154035 8 239 17.7 25.7 0.00 0.00 0.00 100 900.5
20260507153936 8 240 16.1 25.7 0.00 0.00 0.00 100 899.0
20260507153840 8 238 11.3 22.5 0.00 0.00 0.00 100 895.3
20260507153835 8 238 14.5 25.7 0.00 0.00 0.00 100 895.3
20260507153740 8 238 11.3 22.5 0.00 0.00 0.00 100 895.3
20260507153737 8 245 11.3 20.9 0.00 0.00 0.00 100 900.0
20260507153634 8 241 11.3 19.3 0.00 0.00 0.00 100 900.0
20260507153539 8 245 11.3 20.9 0.00 0.00 0.00 100 900.0
20260507153433 8 247 11.3 20.9 0.00 0.00 0.00 100 896.3
20260507153337 8 245 11.3 20.9 0.00 0.00 0.00 100 900.5
20260507153232 8 239 9.7 20.9 0.00 0.00 0.00 100 898.3
20260507153136 8 239 6.4 12.9 0.00 0.00 0.00 100 895.4
20260507153032 9 100 3.2 4.8 0.00 0.00 0.00 100 896.0
20260507152932 9 150 3.2 8.0 0.00 0.00 0.00 100 902.5
20260507152855 9 84 3.2 6.4 0.00 0.00 0.00 100 899.2
20260507152830 9 117 3.2 4.8 0.00 0.00 0.00 100 896.0
20260507152824 9 75 3.2 6.4 0.00 0.00 0.00 100 897.4
20260507152735 9 100 3.2 4.8 0.00 0.00 0.00 100 896.0
20260507152629 9 100 3.2 4.8 0.00 0.00 0.00 100 896.2
20260507152534 9 96 3.2 4.8 0.00 0.00 0.00 100 896.2
20260507152428 9 90 3.2 4.8 0.00 0.00 0.00 100 896.8
20260507152333 9 84 3.2 6.4 0.00 0.00 0.00 100 899.2
20260507152227 9 76 3.2 6.4 0.00 0.00 0.00 100 900.7
20260507152132 9 75 3.2 6.4 0.00 0.00 0.00 100 897.4
20260507152026 9 74 4.8 6.4 0.00 0.00 0.00 100 899.7
20260507151926 9 80 4.8 6.4 0.00 0.00 0.00 100 896.0
20260507151825 9 86 4.8 8.0 0.00 0.00 0.00 100 896.0
20260507151730 9 86 4.8 8.0 0.00 0.00 0.00 100 896.0
20260507151624 9 80 4.8 8.0 0.00 0.00 0.00 100 896.1
20260507151528 9 72 6.4 8.0 0.00 0.00 0.00 100 897.0
20260507151422 9 68 6.4 8.0 0.00 0.00 0.00 100 900.4
20260507151351 8 48 3.2 6.4 0.00 0.00 0.00 100 896.0
20260507151327 9 62 6.4 8.0 0.00 0.00 0.00 100 900.4
20260507151221 9 62 6.4 8.0 0.00 0.00 0.00 100 902.9
20260507151125 8 59 4.8 8.0 0.00 0.00 0.00 100 895.7
20260507151020 8 50 3.2 6.4 0.00 0.00 0.00 100 895.7
20260507150920 8 48 3.2 6.4 0.00 0.00 0.00 100 896.0
20260507150819 8 50 3.2 8.0 0.00 0.00 0.00 100 897.0
20260507150724 8 52 3.2 8.0 0.00 0.00 0.00 100 900.1
20260507150618 8 56 3.2 8.0 0.00 0.00 0.00 100 900.2
20260507150523 8 60 3.2 6.4 0.00 0.00 0.00 100 895.5
20260507150418 8 56 3.2 6.4 0.00 0.00 0.00 100 895.5
20260507150322 8 56 3.2 4.8 0.00 0.00 0.00 100 895.5
20260507150217 8 52 3.2 4.8 0.00 0.00 0.00 100 896.1
20260507150121 8 42 3.2 6.4 0.00 0.00 0.00 100 896.1
20260507150016 8 45 3.2 6.4 0.00 0.00 0.00 100 898.6
20260507145916 8 32 3.2 6.4 0.00 0.00 0.00 100 903.5
20260507145815 8 28 3.2 6.4 0.00 0.00 0.00 100 894.9
20260507145720 9 352 4.8 17.7 0.00 0.00 0.00 100 896.4
20260507145615 9 299 8.0 22.5 0.00 0.00 0.00 100 900.5
20260507145519 9 294 8.0 29.0 0.00 0.00 0.00 100 896.7
20260507145414 9 293 14.5 29.0 0.00 0.00 0.00 100 898.4
20260507145317 9 292 16.1 30.6 0.00 0.00 0.00 100 899.2
20260507145212 9 294 14.5 30.6 0.00 0.00 0.00 100 899.5
20260507145009 10 301 11.3 30.6 0.00 0.00 0.00 100 900.7
20260507144909 10 317 9.7 30.6 0.00 0.00 0.00 100 900.7
20260507144656 10 328 9.7 27.4 0.00 0.00 0.00 100 898.7
20260507144451 10 331 9.7 19.3 0.00 0.00 0.00 100 898.2
20260507144246 11 339 9.7 17.7 0.00 0.00 0.00 100 899.5
20260507144042 11 341 6.4 16.1 0.00 0.00 0.00 100 895.8
20260507143941 11 341 4.8 11.3 0.00 0.00 0.00 100 897.8
20260507143837 11 339 3.2 9.7 0.00 0.00 0.00 100 900.2
20260507143632 11 242 3.2 4.8 0.00 0.00 0.00 100 901.5
20260507143429 11 233 3.2 8.0 0.00 0.00 0.00 100 897.2
20260507143332 11 233 4.8 9.7 0.00 0.00 0.00 100 897.0
20260507143229 11 229 4.8 9.7 0.00 0.00 0.00 100 897.0
20260507143131 11 211 4.8 9.7 0.00 0.00 0.00 100 896.8
20260507143028 11 221 4.8 9.7 0.00 0.00 0.00 100 896.8
20260507142928 11 224 6.4 11.3 0.00 0.00 0.00 100 896.9
20260507142827 11 228 6.4 11.3 0.00 0.00 0.00 100 896.9
20260507142729 11 229 6.4 11.3 0.00 0.00 0.00 100 897.7
20260507142625 11 230 6.4 11.3 0.00 0.00 0.00 100 899.4
20260507142527 11 217 6.4 9.7 0.00 0.00 0.00 100 899.4
20260507142425 11 210 6.4 9.7 0.00 0.00 0.00 100 900.6
20260507142327 11 209 4.8 9.7 0.00 0.00 0.00 100 897.0
20260507142224 11 208 6.4 12.9 0.00 0.00 0.00 100 897.0
20260507142126 11 210 6.4 12.9 0.00 0.00 0.00 100 897.1
20260507142024 11 216 8.0 14.5 0.00 0.00 0.00 100 897.1
20260507141925 11 216 8.0 14.5 0.00 0.00 0.00 100 897.9
20260507141823 11 227 8.0 14.5 0.00 0.00 0.00 100 899.0
20260507141726 11 224 8.0 14.5 0.00 0.00 0.00 100 902.3
20260507141622 11 218 6.4 14.5 0.00 0.00 0.00 100 897.0
20260507141525 11 206 6.4 11.3 0.00 0.00 0.00 100 897.2
20260507141421 11 205 6.4 11.3 0.00 0.00 0.00 100 896.9
20260507141324 11 200 6.4 11.3 0.00 0.00 0.00 100 896.9
20260507141220 11 198 6.4 11.3 0.00 0.00 0.00 100 896.9
20260507141122 11 200 8.0 14.5 0.00 0.00 0.00 100 896.7
20260507141020 11 201 8.0 14.5 0.00 0.00 0.00 100 896.7
20260507140921 11 202 8.0 14.5 0.00 0.00 0.00 100 896.7
20260507140820 11 203 8.0 14.5 0.00 0.00 0.00 100 897.6
20260507140723 11 206 8.0 14.5 0.00 0.00 0.00 100 900.0
20260507140619 11 206 8.0 14.5 0.00 0.00 0.00 100 898.5
20260507140521 11 206 6.4 12.9 0.00 0.00 0.00 100 897.2
20260507140419 11 211 6.4 11.3 0.00 0.00 0.00 100 897.9
20260507140321 11 226 6.4 11.3 0.00 0.00 0.00 100 902.5
20260507140217 11 234 6.4 9.7 0.00 0.00 0.00 100 902.5
20260507140119 11 228 4.8 8.0 0.00 0.00 0.00 100 902.5
20260507140017 11 225 6.4 9.7 0.00 0.00 0.00 100 897.3
20260507135917 11 224 6.4 11.3 0.00 0.00 0.00 100 897.3
20260507135816 11 222 6.4 11.3 0.00 0.00 0.00 100 897.1
20260507135718 11 223 6.4 11.3 0.00 0.00 0.00 100 897.0
20260507135615 11 219 6.4 11.3 0.00 0.00 0.00 100 896.9
20260507135517 11 215 6.4 9.7 0.00 0.00 0.00 100 896.9
20260507135413 11 215 6.4 11.3 0.00 0.00 0.00 100 896.9
20260507135211 11 228 6.4 11.3 0.00 0.00 0.00 100 900.1
20260507135007 11 235 8.0 12.9 0.00 0.00 0.00 100 900.2
20260507134906 11 237 8.0 12.9 0.00 0.00 0.00 100 900.2
20260507134651 11 238 9.7 14.5 0.00 0.00 0.00 100 897.4
20260507134550 11 238 9.7 14.5 0.00 0.00 0.00 100 899.2
20260507134447 11 238 9.7 14.5 0.00 0.00 0.00 100 902.9
20260507134243 11 238 8.0 14.5 0.00 0.00 0.00 100 896.6
20260507134039 11 235 8.0 14.5 0.00 0.00 0.00 100 897.3
20260507133835 11 232 9.7 16.1 0.00 0.00 0.00 100 896.6
20260507133631 11 231 12.9 19.3 0.00 0.00 0.00 100 896.7
20260507133530 11 233 12.9 19.3 0.00 0.00 0.00 100 896.7
20260507133315 11 231 12.9 17.7 0.00 0.00 0.00 100 901.3
20260507133215 11 231 12.9 17.7 0.00 0.00 0.00 100 898.4
20260507133111 11 232 12.9 19.3 0.00 0.00 0.00 100 901.0
20260507132906 11 236 12.9 19.3 0.00 0.00 0.00 100 896.9
20260507132702 11 238 12.9 16.1 0.00 0.00 0.00 100 899.1
20260507132457 11 240 11.3 16.1 0.00 0.00 0.00 100 895.4
20260507132253 11 239 11.3 16.1 0.00 0.00 0.00 100 896.3
20260507132152 11 236 11.3 17.7 0.00 0.00 0.00 100 896.3
20260507131937 11 223 11.3 17.7 0.00 0.00 0.00 100 902.0
20260507131836 11 222 11.3 17.7 0.00 0.00 0.00 100 896.3
20260507131733 11 226 11.3 16.1 0.00 0.00 0.00 100 896.1
20260507131529 11 228 9.7 16.1 0.00 0.00 0.00 100 896.7
20260507131326 11 224 9.7 14.5 0.00 0.00 0.00 100 901.5
20260507131122 11 244 6.4 14.5 0.00 0.00 0.00 100 901.1
20260507130917 11 269 4.8 11.3 0.00 0.00 0.00 100 896.9
20260507130816 11 266 4.8 11.3 0.00 0.00 0.00 100 896.9
20260507130603 11 291 3.2 11.3 0.00 0.00 0.00 100 901.6
20260507130503 12 291 4.8 11.3 0.00 0.00 0.00 100 897.1
20260507130401 11 291 4.8 11.3 0.00 0.00 0.00 100 897.1
20260507130158 11 265 8.0 14.5 0.00 0.00 0.00 100 896.8
20260507125954 11 238 9.7 14.5 0.00 0.00 0.00 100 896.6
20260507125749 11 229 8.0 17.7 0.00 0.00 0.00 100 897.2
20260507125546 11 225 8.0 17.7 0.00 0.00 0.00 100 900.4
20260507125444 11 226 6.4 17.7 0.00 0.00 0.00 100 900.4
20260507125229 11 240 4.8 12.9 0.00 0.00 0.00 100 897.7
20260507125129 11 235 4.8 12.9 0.00 0.00 0.00 100 897.6
20260507125025 11 0 3.2 12.9 0.00 0.00 0.00 100 897.6
20260507124821 11 76 1.6 3.2 0.00 0.00 0.00 100 898.0
20260507124616 11 59 1.6 3.2 0.00 0.00 0.00 100 898.0
20260507124411 11 0 1.6 3.2 0.00 0.00 0.00 100 898.0
20260507124207 11 297 1.6 1.6 0.00 0.00 0.00 100 897.8
20260507124106 11 324 1.6 3.2 0.00 0.00 0.00 100 897.8
20260507123852 11 6 3.2 6.4 0.00 0.00 0.00 100 897.7
20260507123750 11 7 3.2 6.4 0.00 0.00 0.00 100 897.4
20260507123647 11 1 3.2 6.4 0.00 0.00 0.00 100 898.0
20260507123443 11 347 3.2 6.4 0.00 0.00 0.00 100 898.0
20260507123240 11 338 3.2 8.0 0.00 0.00 0.00 100 901.3
20260507122731 11 237 9.7 19.3 0.00 0.00 0.00 100 897.6
20260507122415 11 239 11.3 19.3 0.00 0.00 0.00 100 897.0
20260507121904 11 241 11.3 22.5 0.00 0.00 0.00 100 897.2
20260507121353 11 240 6.4 12.9 0.00 0.00 0.00 100 897.2
20260507120851 11 190 4.8 8.0 0.00 0.00 0.00 100 897.0
20260507120348 11 237 4.8 8.0 0.00 0.00 0.00 100 897.9
20260507115846 11 211 3.2 4.8 0.00 0.00 0.00 100 898.1
20260507115342 11 185 3.2 6.4 0.00 0.00 0.00 100 897.0
20260507114840 11 243 1.6 3.2 0.00 0.00 0.00 100 901.3
20260507114337 11 250 1.6 3.2 0.00 0.00 0.00 100 897.4
20260507113835 11 253 3.2 4.8 0.00 0.00 0.00 100 897.6
20260507113332 11 224 3.2 4.8 0.00 0.00 0.00 100 896.6
20260507112830 11 256 3.2 6.4 0.00 0.00 0.00 100 899.4
20260507112658 11 287 1.6 4.8 0.00 0.00 0.00 100 897.3
20260507112457 11 244 3.2 6.4 0.00 0.00 0.00 100 898.7
20260507112256 11 244 3.2 6.4 0.00 0.00 0.00 100 898.7
20260507112154 11 240 3.2 6.4 0.00 0.00 0.00 100 900.8
20260507112039 11 244 3.2 4.8 0.00 0.00 0.00 100 897.5
20260507111836 11 263 1.6 4.8 0.00 0.00 0.00 100 898.2
20260507111631 11 294 3.2 4.8 0.00 0.00 0.00 100 897.4
20260507111530 11 293 3.2 4.8 0.00 0.00 0.00 100 897.3
20260507111427 11 294 3.2 6.4 0.00 0.00 0.00 100 897.3
20260507111223 11 292 3.2 6.4 0.00 0.00 0.00 100 897.2
20260507111020 11 279 3.2 4.8 0.00 0.00 0.00 100 897.3
20260507110816 11 295 3.2 6.4 0.00 0.00 0.00 100 897.0
20260507110614 11 297 3.2 8.0 0.00 0.00 0.00 100 897.0
20260507110515 11 297 3.2 8.0 0.00 0.00 0.00 100 897.7
20260507110413 11 298 3.2 8.0 0.00 0.00 0.00 100 900.5
20260507110319 11 303 3.2 6.4 0.00 0.00 0.00 100 897.3
20260507110213 11 298 3.2 6.4 0.00 0.00 0.00 100 897.1
20260507110118 11 298 3.2 8.0 0.00 0.00 0.00 100 897.1
20260507110012 11 297 3.2 8.0 0.00 0.00 0.00 100 897.1
20260507105918 11 296 3.2 9.7 0.00 0.00 0.00 100 897.1
20260507105811 11 297 4.8 9.7 0.00 0.00 0.00 100 897.0
20260507105715 11 299 4.8 9.7 0.00 0.00 0.00 100 897.3
20260507105610 11 300 6.4 14.5 0.00 0.00 0.00 100 897.8
20260507105511 11 299 4.8 14.5 0.00 0.00 0.00 100 899.2
20260507105409 11 308 4.8 14.5 0.00 0.00 0.00 100 903.0
20260507105315 11 316 4.8 14.5 0.00 0.00 0.00 100 896.9
20260507105208 11 315 6.4 12.9 0.00 0.00 0.00 100 897.0
20260507105007 11 299 6.4 12.9 0.00 0.00 0.00 100 896.8
20260507104909 11 297 8.0 12.9 0.00 0.00 0.00 100 896.8
20260507104806 11 298 6.4 12.9 0.00 0.00 0.00 100 897.2
20260507104709 11 296 4.8 11.3 0.00 0.00 0.00 100 898.1
20260507104606 11 296 4.8 9.7 0.00 0.00 0.00 100 900.4
20260507104506 11 295 3.2 9.7 0.00 0.00 0.00 100 900.6
20260507104405 11 262 3.2 8.0 0.00 0.00 0.00 100 897.4
20260507104203 11 255 4.8 9.7 0.00 0.00 0.00 100 897.0
20260507104107 11 252 4.8 9.7 0.00 0.00 0.00 100 897.0
20260507104003 11 251 4.8 11.3 0.00 0.00 0.00 100 896.9
20260507103905 11 251 4.8 11.3 0.00 0.00 0.00 100 897.0
20260507103802 11 250 6.4 11.3 0.00 0.00 0.00 100 897.0
20260507103600 11 252 8.0 12.9 0.00 0.00 0.00 100 897.4
20260507103501 11 252 8.0 12.9 0.00 0.00 0.00 100 900.9
20260507103359 11 252 9.7 14.5 0.00 0.00 0.00 100 896.4
20260507103303 11 251 8.0 14.5 0.00 0.00 0.00 100 896.4
20260507103158 11 246 9.7 14.5 0.00 0.00 0.00 100 896.2
20260507102958 11 247 8.0 12.9 0.00 0.00 0.00 100 898.2
20260507102755 11 254 6.4 12.9 0.00 0.00 0.00 100 896.8
20260507102552 11 252 4.8 6.4 0.00 0.00 0.00 100 896.9
20260507102451 11 252 4.8 8.0 0.00 0.00 0.00 100 896.9
20260507102314 11 257 4.8 8.0 0.00 0.00 0.00 100 899.4
20260507102111 11 256 4.8 8.0 0.00 0.00 0.00 100 897.0
20260507101906 11 272 4.8 11.3 0.00 0.00 0.00 100 897.0
20260507101806 11 283 4.8 11.3 0.00 0.00 0.00 100 897.0
20260507101552 11 296 3.2 11.3 0.00 0.00 0.00 100 896.8
20260507101451 11 296 3.2 8.0 0.00 0.00 0.00 100 896.9
20260507101349 11 282 3.2 8.0 0.00 0.00 0.00 100 896.8
20260507101143 11 279 3.2 6.4 0.00 0.00 0.00 100 897.6
20260507100940 11 280 4.8 9.7 0.00 0.00 0.00 100 901.0
20260507100736 11 294 4.8 9.7 0.00 0.00 0.00 100 896.7
20260507100532 11 297 6.4 11.3 0.00 0.00 0.00 100 896.5
20260507100432 11 297 6.4 11.3 0.00 0.00 0.00 100 896.5
20260507100124 11 294 8.0 20.9 0.00 0.00 0.00 100 898.3
20260507100023 11 285 8.0 20.9 0.00 0.00 0.00 100 900.7
20260507095920 11 274 8.0 19.3 0.00 0.00 0.00 100 896.3
20260507095715 11 256 9.7 19.3 0.00 0.00 0.00 100 897.5
20260507095512 11 251 9.7 17.7 0.00 0.00 0.00 100 899.5
20260507095307 11 244 11.3 25.7 0.00 0.00 0.00 100 896.8
20260507095104 11 245 14.5 25.7 0.00 0.00 0.00 100 896.5
20260507095002 11 243 14.5 25.7 0.00 0.00 0.00 100 896.5
20260507094747 11 244 16.1 22.5 0.00 0.00 0.00 100 899.5
20260507094645 11 242 16.1 29.0 0.00 0.00 0.00 100 895.8
20260507094543 11 242 17.7 29.0 0.00 0.00 0.00 100 896.5
20260507094339 11 244 17.7 29.0 0.00 0.00 0.00 100 896.3
20260507094135 11 244 12.9 25.7 0.00 0.00 0.00 100 901.8
20260507093931 11 246 12.9 19.3 0.00 0.00 0.00 100 896.0
20260507093727 12 244 9.7 19.3 0.00 0.00 0.00 100 898.2
20260507093627 12 243 9.7 16.1 0.00 0.00 0.00 100 898.2
20260507093412 12 248 9.7 14.5 0.00 0.00 0.00 100 896.4
20260507093312 12 249 9.7 16.1 0.00 0.00 0.00 100 897.1
20260507093205 12 240 9.7 17.7 0.00 0.00 0.00 100 898.3
20260507093001 12 238 9.7 17.7 0.00 0.00 0.00 100 896.3
20260507092757 11 236 8.0 16.1 0.00 0.00 0.00 100 896.4
20260507092552 11 209 11.3 22.5 0.00 0.00 0.00 100 896.2
20260507092348 12 209 14.5 24.1 0.00 0.00 0.00 100 897.4
20260507092248 12 215 16.1 24.1 0.00 0.00 0.00 100 897.4
20260507092033 12 229 17.7 29.0 0.00 0.00 0.00 100 895.8
20260507091932 12 231 17.7 29.0 0.00 0.00 0.00 100 896.4
20260507091829 12 224 16.1 29.0 0.00 0.00 0.00 100 897.6
20260507091626 12 225 16.1 27.4 0.00 0.00 0.00 100 896.1
20260507091423 12 231 17.7 24.1 0.00 0.00 0.00 100 895.9
20260507091219 11 232 19.3 27.4 0.00 0.00 0.00 100 899.0
20260507091015 11 219 19.3 27.4 0.00 0.00 0.00 100 895.3
20260507090915 11 211 17.7 30.6 0.00 0.00 0.00 100 895.3
20260507090700 11 211 19.3 32.2 0.00 0.00 0.00 100 897.5
20260507090559 11 224 20.9 32.2 0.00 0.00 0.00 100 901.0
20260507090455 11 230 20.9 32.2 0.00 0.00 0.00 100 895.2
20260507090253 11 236 19.3 32.2 0.00 0.00 0.00 100 897.1
20260507090049 11 236 19.3 30.6 0.00 0.00 0.00 100 896.2
20260507085844 11 233 19.3 29.0 0.00 0.00 0.00 100 895.7
20260507085640 11 235 19.3 30.6 0.00 0.00 0.00 100 896.1
20260507085540 11 235 19.3 30.6 0.00 0.00 0.00 100 896.1
20260507085324 11 239 17.7 30.6 0.00 0.00 0.00 100 898.3
20260507085223 11 243 16.1 25.7 0.00 0.00 0.00 100 895.7
20260507085120 11 246 16.1 24.1 0.00 0.00 0.00 100 895.7
20260507084915 11 244 14.5 24.1 0.00 0.00 0.00 100 895.4
20260507084711 11 242 16.1 25.7 0.00 0.00 0.00 100 895.5
20260507084507 11 244 16.1 29.0 0.00 0.00 0.00 100 901.4
20260507084303 11 234 19.3 30.6 0.00 0.00 0.00 100 896.1
20260507084202 11 233 17.7 30.6 0.00 0.00 0.00 100 896.1
20260507083946 11 238 17.7 30.6 0.00 0.00 0.00 100 894.9
20260507083845 11 244 17.7 33.8 0.00 0.00 0.00 100 895.7
20260507083739 11 240 20.9 33.8 0.00 0.00 0.00 100 899.2
20260507083534 11 239 20.9 33.8 0.00 0.00 0.00 100 896.2
20260507083329 11 243 19.3 32.2 0.00 0.00 0.00 100 897.4
20260507083125 11 249 19.3 32.2 0.00 0.00 0.00 100 895.6
20260507082921 11 248 19.3 32.2 0.00 0.00 0.00 100 896.8
20260507082821 11 248 17.7 32.2 0.00 0.00 0.00 100 899.5
20260507082559 11 243 16.1 27.4 0.00 0.00 0.00 100 895.5
20260507082359 12 235 22.5 32.2 0.00 0.00 0.00 100 895.3
20260507082157 11 240 22.5 32.2 0.00 0.00 0.00 100 895.3
20260507082056 11 243 20.9 32.2 0.00 0.00 0.00 100 895.5
20260507081847 11 252 16.1 29.0 0.00 0.00 0.00 100 898.7
20260507081627 11 253 17.7 30.6 0.00 0.00 0.00 100 895.7
20260507081422 11 252 17.7 30.6 0.00 0.00 0.00 100 900.2
20260507081323 11 252 17.7 30.6 0.00 0.00 0.00 100 895.4
20260507081222 11 251 19.3 30.6 0.00 0.00 0.00 100 896.4
20260507081021 11 250 19.3 30.6 0.00 0.00 0.00 100 894.7
20260507080820 11 250 22.5 32.2 0.00 0.00 0.00 100 894.1
20260507080619 11 239 20.9 32.2 0.00 0.00 0.00 100 901.7
20260507080418 11 238 20.9 32.2 0.00 0.00 0.00 100 901.7
20260507080318 11 240 20.9 32.2 0.00 0.00 0.00 100 894.6
20260507080032 11 238 24.1 37.0 0.00 0.00 0.00 100 896.0
20260507075916 11 236 27.4 38.6 0.00 0.00 0.00 100 901.4
20260507075829 11 236 27.4 38.6 0.00 0.00 0.00 100 901.4
20260507075629 11 238 30.6 41.8 0.00 0.00 0.00 100 896.1
20260507075529 11 235 29.0 43.5 0.00 0.00 0.00 100 894.0
20260507075337 11 235 29.0 43.5 0.00 0.00 0.00 100 895.2
20260507075136 11 240 24.1 38.6 0.00 0.00 0.00 100 898.1
20260507074935 11 243 27.4 38.6 0.00 0.00 0.00 100 894.3
20260507074732 11 242 29.0 40.2 0.00 0.00 0.00 100 895.3
20260507074530 11 239 29.0 45.1 0.00 0.00 0.00 100 895.3
20260507074430 11 237 29.0 45.1 0.00 0.00 0.00 100 899.9
20260507074329 11 238 30.6 45.1 0.00 0.00 0.00 100 895.6
20260507074129 11 239 29.0 41.8 0.00 0.00 0.00 100 894.0
20260507073925 11 243 29.0 45.1 0.00 0.00 0.00 100 898.6
20260507073836 11 243 29.0 45.1 0.00 0.00 0.00 100 896.0
20260507073723 11 243 29.0 45.1 0.00 0.00 0.00 100 897.1
20260507073631 11 244 27.4 45.1 0.00 0.00 0.00 100 897.1
20260507073522 11 239 27.4 45.1 0.00 0.00 0.00 100 894.8
20260507073423 11 239 25.7 37.0 0.00 0.00 0.00 100 898.4
20260507073322 11 233 29.0 41.8 0.00 0.00 0.00 100 893.9
20260507073229 11 232 29.0 41.8 0.00 0.00 0.00 100 897.9
20260507073120 11 230 29.0 41.8 0.00 0.00 0.00 100 897.9
20260507073028 11 230 27.4 41.8 0.00 0.00 0.00 100 894.1
20260507072920 11 230 29.0 41.8 0.00 0.00 0.00 100 896.9
20260507072828 11 230 29.0 43.5 0.00 0.00 0.00 100 895.7
20260507072719 11 230 30.6 43.5 0.00 0.00 0.00 100 893.5
20260507072627 11 230 30.6 43.5 0.00 0.00 0.00 100 895.5
20260507072519 11 232 29.0 43.5 0.00 0.00 0.00 100 899.2
20260507072427 11 232 27.4 41.8 0.00 0.00 0.00 100 899.2
20260507072419 11 232 27.4 41.8 0.00 0.00 0.00 100 898.8
20260507072318 11 230 25.7 41.8 0.00 0.00 0.00 100 898.8
20260507072226 11 232 25.7 41.8 0.00 0.00 0.00 100 893.6
20260507072117 11 230 27.4 41.8 0.00 0.00 0.00 100 894.0
20260507072029 11 232 27.4 41.8 0.00 0.00 0.00 100 896.1
20260507071916 11 234 27.4 41.8 0.00 0.00 0.00 100 900.7
20260507071824 11 234 25.7 41.8 0.00 0.00 0.00 100 893.2
20260507071715 10 229 25.7 41.8 0.00 0.00 0.00 100 893.2
20260507071623 10 234 25.7 38.6 0.00 0.00 0.00 100 895.7
20260507071515 10 235 25.7 38.6 0.00 0.00 0.00 100 895.7
20260507071416 10 235 25.7 38.6 0.00 0.00 0.00 100 895.5
20260507071314 11 237 25.7 38.6 0.00 0.00 0.00 100 893.3
20260507071221 11 235 25.7 38.6 0.00 0.00 0.00 100 893.3
20260507071114 11 230 25.7 35.4 0.00 0.00 0.00 100 894.1
20260507071025 10 228 27.4 37.0 0.00 0.00 0.00 100 896.6
20260507070913 10 228 27.4 37.0 0.00 0.00 0.00 100 896.4
20260507070821 10 230 27.4 37.0 0.00 0.00 0.00 100 896.9
20260507070711 10 234 29.0 38.6 0.00 0.00 0.00 100 893.3
20260507070508 10 234 29.0 38.6 0.00 0.00 0.00 100 894.8
20260507070408 10 238 27.4 38.6 0.00 0.00 0.00 100 894.8
20260507070307 10 238 25.7 38.6 0.00 0.00 0.00 100 897.1
20260507070111 10 237 25.7 38.6 0.00 0.00 0.00 100 894.1
20260507070106 10 237 25.7 38.6 0.00 0.00 0.00 100 898.0
20260507065906 10 236 30.6 45.1 0.00 0.00 0.00 100 893.4
20260507065743 10 233 29.0 41.8 0.00 0.00 0.00 100 897.7
20260507065706 10 233 29.0 41.8 0.00 0.00 0.00 100 897.7
20260507065503 10 228 29.0 45.1 0.00 0.00 0.00 100 892.7
20260507065401 10 226 32.2 48.3 0.00 0.00 0.00 100 895.7
20260507065300 10 231 32.2 48.3 0.00 0.00 0.00 100 897.8
20260507065059 10 233 30.6 48.3 0.00 0.00 0.00 100 892.9
20260507064901 10 240 29.0 45.1 0.00 0.00 0.00 100 897.4
20260507064858 10 240 29.0 45.1 0.00 0.00 0.00 100 898.7
20260507064657 10 241 32.2 48.3 0.00 0.00 0.00 100 892.3
20260507064456 10 232 35.4 53.1 0.00 0.00 0.00 100 901.1
20260507064356 10 230 32.2 53.1 0.00 0.00 0.00 100 892.0
20260507064255 10 234 32.2 53.1 0.00 0.00 0.00 100 892.0
20260507064054 10 233 29.0 46.7 0.00 0.00 0.00 100 901.5
20260507063854 10 236 30.6 46.7 0.00 0.00 0.00 100 892.8
20260507063654 10 236 25.7 40.2 0.00 0.00 0.00 100 897.2
20260507063453 10 229 27.4 48.3 0.00 0.00 0.00 100 892.9
20260507063353 10 229 27.4 48.3 0.00 0.00 0.00 100 893.7
20260507063252 10 233 29.0 48.3 0.00 0.00 0.00 100 895.8
20260507063051 10 235 29.0 45.1 0.00 0.00 0.00 100 896.4
20260507062851 10 232 32.2 49.9 0.00 0.00 0.00 100 894.0
20260507062650 10 229 32.2 53.1 0.00 0.00 0.00 100 896.1
20260507062447 10 227 32.2 53.1 0.00 0.00 0.00 100 892.0
20260507062346 10 219 30.6 51.5 0.00 0.00 0.00 100 893.7
20260507062140 10 216 32.2 54.7 0.00 0.00 0.00 100 891.8
20260507061933 10 214 32.2 54.7 0.00 0.00 0.00 100 895.3
20260507061838 10 214 32.2 54.7 0.00 0.00 0.00 100 896.0
20260507061733 10 214 33.8 54.7 0.00 0.00 0.00 100 891.8
20260507061633 10 216 33.8 53.1 0.00 0.00 0.00 100 897.3
20260507061531 10 228 33.8 53.1 0.00 0.00 0.00 100 897.3
20260507061435 10 230 33.8 53.1 0.00 0.00 0.00 100 895.8
20260507061330 10 230 35.4 54.7 0.00 0.00 0.00 100 892.3
20260507061236 10 230 35.4 54.7 0.00 0.00 0.00 100 899.6
20260507061129 10 227 35.4 54.7 0.00 0.00 0.00 100 891.6
20260507061033 10 224 33.8 54.7 0.00 0.00 0.00 100 891.6
20260507060928 10 225 35.4 54.7 0.00 0.00 0.00 100 893.0
20260507060834 10 224 33.8 54.7 0.00 0.00 0.00 100 893.0
20260507060727 10 225 35.4 54.7 0.00 0.00 0.00 100 894.7
20260507060627 10 222 35.4 53.1 0.00 0.00 0.00 100 894.7
20260507060525 10 222 35.4 56.3 0.00 0.00 0.00 100 892.0
20260507060429 10 221 35.4 56.3 0.00 0.00 0.00 100 894.5
20260507060323 10 221 37.0 57.9 0.00 0.00 0.00 100 899.4
20260507060228 10 221 37.0 57.9 0.00 0.00 0.00 100 891.2
20260507060123 10 221 35.4 57.9 0.00 0.00 0.00 100 898.9
20260507060026 10 222 35.4 57.9 0.00 0.00 0.00 100 898.9
20260507055920 10 222 35.4 57.9 0.00 0.00 0.00 100 898.9
20260507055717 10 218 37.0 57.9 0.00 0.00 0.00 100 894.6
20260507055616 10 221 38.6 61.2 0.00 0.00 0.00 100 892.4
20260507055510 10 221 37.0 61.2 0.00 0.00 0.00 100 892.4
20260507055308 10 229 35.4 61.2 0.00 0.00 0.00 100 900.2
20260507055213 10 229 33.8 57.9 0.00 0.00 0.00 100 891.7
20260507055107 10 229 33.8 57.9 0.00 0.00 0.00 100 894.6
20260507055012 10 229 33.8 57.9 0.00 0.00 0.00 100 894.6
20260507054906 10 227 32.2 57.9 0.00 0.00 0.00 100 893.1
20260507054821 10 227 30.6 49.9 0.00 0.00 0.00 100 893.1
20260507054706 10 221 32.2 54.7 0.00 0.00 0.00 100 899.2
20260507054606 10 221 32.2 54.7 0.00 0.00 0.00 100 899.2
20260507054505 10 220 32.2 54.7 0.00 0.00 0.00 100 891.5
20260507054410 10 218 33.8 54.7 0.00 0.00 0.00 100 893.2
20260507054304 10 218 35.4 54.7 0.00 0.00 0.00 100 900.2
20260507054208 10 220 35.4 54.7 0.00 0.00 0.00 100 892.6
20260507054103 10 220 35.4 54.7 0.00 0.00 0.00 100 892.7
20260507054008 10 218 35.4 57.9 0.00 0.00 0.00 100 899.1
20260507053902 10 218 37.0 57.9 0.00 0.00 0.00 100 896.3
20260507053806 10 215 35.4 57.9 0.00 0.00 0.00 100 893.6
20260507053701 10 217 35.4 54.7 0.00 0.00 0.00 100 898.5
20260507053601 10 214 35.4 57.9 0.00 0.00 0.00 100 890.7
20260507053459 10 214 37.0 57.9 0.00 0.00 0.00 100 890.7
20260507053404 10 211 37.0 57.9 0.00 0.00 0.00 100 892.2
20260507053259 10 211 37.0 57.9 0.00 0.00 0.00 100 899.4
20260507053204 10 214 35.4 57.9 0.00 0.00 0.00 100 893.2
20260507053058 10 213 35.4 59.5 0.00 0.00 0.00 100 891.1
20260507053003 10 219 37.0 59.5 0.00 0.00 0.00 100 898.5
20260507052856 10 222 35.4 59.5 0.00 0.00 0.00 100 894.4
20260507052801 10 221 33.8 59.5 0.00 0.00 0.00 100 892.6
20260507052656 10 222 33.8 59.5 0.00 0.00 0.00 100 899.1
20260507052556 10 222 30.6 59.5 0.00 0.00 0.00 100 895.8
20260507052455 10 217 32.2 57.9 0.00 0.00 0.00 100 895.8
20260507052400 10 218 33.8 57.9 0.00 0.00 0.00 100 895.8
20260507052254 10 214 33.8 64.4 0.00 0.00 0.00 100 893.4
20260507052159 10 215 35.4 64.4 0.00 0.00 0.00 100 895.7
20260507052053 10 216 35.4 64.4 0.00 0.00 0.00 100 892.0
20260507051957 10 217 33.8 64.4 0.00 0.00 0.00 100 894.1
20260507051852 10 219 35.4 53.1 0.00 0.00 0.00 100 898.3
20260507051756 10 218 33.8 53.1 0.00 0.00 0.00 100 893.9
20260507051651 10 217 35.4 53.1 0.00 0.00 0.00 100 893.5
20260507051552 10 218 35.4 54.7 0.00 0.00 0.00 100 897.0
20260507051450 10 215 33.8 54.7 0.00 0.00 0.00 100 892.4
20260507051356 10 215 33.8 54.7 0.00 0.00 0.00 100 896.7
20260507051249 10 214 35.4 54.7 0.00 0.00 0.00 100 895.1
20260507051153 10 212 32.2 51.5 0.00 0.00 0.00 100 895.1
20260507051048 10 218 32.2 51.5 0.00 0.00 0.00 100 891.5
20260507050953 10 218 33.8 51.5 0.00 0.00 0.00 100 894.9
20260507050847 10 218 32.2 51.5 0.00 0.00 0.00 100 897.8
20260507050752 10 218 33.8 54.7 0.00 0.00 0.00 100 891.2
20260507050647 10 224 32.2 54.7 0.00 0.00 0.00 100 894.3
20260507050547 10 223 33.8 54.7 0.00 0.00 0.00 100 897.2
20260507050446 10 225 37.0 54.7 0.00 0.00 0.00 100 891.1
20260507050350 10 222 35.4 57.9 0.00 0.00 0.00 100 894.5
20260507050245 10 222 35.4 57.9 0.00 0.00 0.00 100 895.4
20260507050150 10 220 35.4 57.9 0.00 0.00 0.00 100 892.0
20260507050044 10 220 37.0 61.2 0.00 0.00 0.00 100 895.8
20260507045948 10 221 38.6 67.6 0.00 0.00 0.00 100 895.8
20260507045843 10 220 38.6 67.6 0.00 0.00 0.00 100 893.6
20260507045746 10 225 40.2 67.6 0.00 0.00 0.00 100 891.4
20260507045642 10 226 40.2 67.6 0.00 0.00 0.00 100 895.0
20260507045543 10 227 38.6 61.2 0.00 0.00 0.00 100 893.2
20260507045440 10 228 38.6 61.2 0.00 0.00 0.00 100 892.9
20260507045344 10 227 40.2 61.2 0.00 0.00 0.00 100 891.9
20260507045238 10 226 38.6 56.3 0.00 0.00 0.00 100 896.5
20260507045144 10 226 38.6 56.3 0.00 0.00 0.00 100 893.5
20260507045038 10 225 38.6 56.3 0.00 0.00 0.00 100 891.5
20260507044942 10 226 38.6 56.3 0.00 0.00 0.00 100 896.9
20260507044837 10 225 38.6 59.5 0.00 0.00 0.00 100 895.8
20260507044742 10 219 38.6 59.5 0.00 0.00 0.00 100 895.8
20260507044636 10 219 38.6 59.5 0.00 0.00 0.00 100 892.2
20260507044538 10 217 37.0 59.5 0.00 0.00 0.00 100 896.9
20260507044436 10 214 37.0 57.9 0.00 0.00 0.00 100 893.8
20260507044339 10 217 35.4 57.9 0.00 0.00 0.00 100 893.8
20260507044235 10 221 35.4 57.9 0.00 0.00 0.00 100 896.9
20260507044138 10 221 37.0 57.9 0.00 0.00 0.00 100 894.0
20260507044034 10 220 35.4 54.7 0.00 0.00 0.00 100 893.4
20260507043936 10 221 35.4 53.1 0.00 0.00 0.00 100 897.3
20260507043832 10 223 35.4 53.1 0.00 0.00 0.00 100 897.3
20260507043736 10 223 35.4 51.5 0.00 0.00 0.00 100 891.5
20260507043631 10 218 35.4 53.1 0.00 0.00 0.00 100 895.7
20260507043532 10 218 38.6 57.9 0.00 0.00 0.00 100 895.7
20260507043430 10 217 38.6 61.2 0.00 0.00 0.00 100 892.8
20260507043334 10 218 37.0 61.2 0.00 0.00 0.00 100 891.5
20260507043229 10 227 37.0 61.2 0.00 0.00 0.00 100 894.9
20260507043133 10 227 37.0 61.2 0.00 0.00 0.00 100 891.4
20260507043028 10 229 35.4 59.5 0.00 0.00 0.00 100 897.3
20260507042931 10 234 38.6 59.5 0.00 0.00 0.00 100 896.3
20260507042827 10 231 38.6 51.5 0.00 0.00 0.00 100 893.4
20260507042731 10 228 38.6 51.5 0.00 0.00 0.00 100 892.8
20260507042626 10 226 38.6 61.2 0.00 0.00 0.00 100 894.4
20260507042527 10 223 38.6 61.2 0.00 0.00 0.00 100 893.7
20260507042426 10 222 37.0 61.2 0.00 0.00 0.00 100 891.4
20260507042328 10 222 33.8 51.5 0.00 0.00 0.00 100 891.4
20260507042223 10 219 32.2 46.7 0.00 0.00 0.00 100 895.8
20260507042126 10 216 29.0 46.7 0.00 0.00 0.00 100 895.6
20260507042022 10 215 29.0 46.7 0.00 0.00 0.00 100 891.7
20260507041925 10 215 30.6 51.5 0.00 0.00 0.00 100 896.9
20260507041821 10 217 30.6 51.5 0.00 0.00 0.00 100 896.9
20260507041725 10 223 30.6 51.5 0.00 0.00 0.00 100 892.1
20260507041621 10 221 30.6 51.5 0.00 0.00 0.00 100 894.1
20260507041521 10 221 29.0 48.3 0.00 0.00 0.00 100 892.7
20260507041408 10 219 29.0 48.3 0.00 0.00 0.00 100 892.7
20260507041314 10 214 29.0 48.3 0.00 0.00 0.00 100 895.8
20260507041208 10 217 29.0 48.3 0.00 0.00 0.00 100 895.7
20260507041114 10 227 27.4 48.3 0.00 0.00 0.00 100 893.4
20260507041007 10 228 29.0 48.3 0.00 0.00 0.00 100 892.5
20260507040913 10 228 29.0 45.1 0.00 0.00 0.00 100 892.5
20260507040806 10 227 29.0 45.1 0.00 0.00 0.00 100 896.9
20260507040712 10 219 27.4 45.1 0.00 0.00 0.00 100 895.1
20260507040605 10 218 27.4 41.8 0.00 0.00 0.00 100 895.1
20260507040506 10 213 27.4 41.8 0.00 0.00 0.00 100 892.0
20260507040405 10 221 27.4 40.2 0.00 0.00 0.00 100 895.9
20260507040311 10 221 27.4 40.2 0.00 0.00 0.00 100 895.9
20260507040204 10 223 30.6 45.1 0.00 0.00 0.00 100 893.8
20260507040110 10 221 30.6 48.3 0.00 0.00 0.00 100 892.1
20260507040003 10 221 30.6 48.3 0.00 0.00 0.00 100 892.1
20260507035909 10 222 30.6 48.3 0.00 0.00 0.00 100 892.1
20260507035803 10 218 32.2 56.3 0.00 0.00 0.00 100 892.1
20260507035709 10 223 32.2 56.3 0.00 0.00 0.00 100 897.4
20260507035601 10 223 32.2 56.3 0.00 0.00 0.00 100 892.3
20260507035502 10 223 32.2 51.5 0.00 0.00 0.00 100 891.5
20260507035401 10 222 30.6 51.5 0.00 0.00 0.00 100 895.9
20260507035307 10 221 27.4 53.1 0.00 0.00 0.00 100 893.3
20260507035200 10 221 27.4 53.1 0.00 0.00 0.00 100 892.5
20260507035106 10 218 27.4 53.1 0.00 0.00 0.00 100 898.6
20260507034959 10 219 30.6 53.1 0.00 0.00 0.00 100 893.4
20260507034905 10 219 32.2 53.1 0.00 0.00 0.00 100 891.1
20260507034758 10 216 32.2 53.1 0.00 0.00 0.00 100 897.3
20260507034705 10 218 32.2 53.1 0.00 0.00 0.00 100 897.3
20260507034558 10 218 33.8 59.5 0.00 0.00 0.00 100 893.9
20260507034458 10 215 35.4 61.2 0.00 0.00 0.00 100 891.0
20260507034357 10 214 37.0 61.2 0.00 0.00 0.00 100 894.2
20260507034303 10 218 37.0 61.2 0.00 0.00 0.00 100 895.0
20260507034156 10 216 38.6 61.2 0.00 0.00 0.00 100 890.1
20260507034102 10 219 38.6 56.3 0.00 0.00 0.00 100 894.0
20260507033954 10 221 38.6 59.5 0.00 0.00 0.00 100 897.3
20260507033900 10 218 37.0 59.5 0.00 0.00 0.00 100 890.1
20260507033753 10 218 37.0 59.5 0.00 0.00 0.00 100 896.3
20260507033659 10 216 37.0 70.8 0.00 0.00 0.00 100 893.8
20260507033552 10 215 37.0 70.8 0.00 0.00 0.00 100 891.1
20260507033459 10 217 38.6 70.8 0.00 0.00 0.00 100 891.1
20260507033453 10 217 38.6 70.8 0.00 0.00 0.00 100 897.3
20260507033351 10 217 38.6 70.8 0.00 0.00 0.00 100 897.3
20260507033257 10 216 37.0 67.6 0.00 0.00 0.00 100 894.6
20260507033150 10 213 37.0 67.6 0.00 0.00 0.00 100 893.2
20260507033115 10 212 37.0 64.4 0.00 0.00 0.00 100 892.1
20260507032949 10 209 37.0 64.4 0.00 0.00 0.00 100 891.2
20260507032855 10 209 37.0 64.4 0.00 0.00 0.00 100 891.2
20260507032749 10 206 37.0 66.0 0.00 0.00 0.00 100 892.1
20260507032655 10 207 37.0 66.0 0.00 0.00 0.00 100 891.5
20260507032548 10 208 38.6 66.0 0.00 0.00 0.00 100 891.5
20260507032448 10 208 41.8 67.6 0.00 0.00 0.00 100 894.3
20260507032347 10 209 41.8 67.6 0.00 0.00 0.00 100 889.8
20260507032252 10 207 41.8 67.6 0.00 0.00 0.00 100 889.8
20260507032146 10 207 38.6 67.6 0.00 0.00 0.00 100 897.7
20260507032052 10 207 37.0 62.8 0.00 0.00 0.00 100 889.6
20260507031945 10 206 35.4 67.6 0.00 0.00 0.00 100 889.6
20260507031851 10 210 35.4 67.6 0.00 0.00 0.00 100 897.4
20260507031743 10 210 37.0 67.6 0.00 0.00 0.00 100 893.1
20260507031649 10 210 37.0 67.6 0.00 0.00 0.00 100 891.6
20260507031542 10 211 38.6 66.0 0.00 0.00 0.00 100 891.9
20260507031442 10 213 40.2 66.0 0.00 0.00 0.00 100 891.9
20260507031340 10 215 41.8 66.0 0.00 0.00 0.00 100 894.1
20260507031245 10 218 40.2 66.0 0.00 0.00 0.00 100 892.2
20260507031140 10 216 40.2 66.0 0.00 0.00 0.00 100 894.2
20260507031046 10 216 35.4 64.4 0.00 0.00 0.00 100 894.2
20260507030939 10 216 35.4 64.4 0.00 0.00 0.00 100 890.3
20260507030844 10 221 35.4 56.3 0.00 0.00 0.00 100 894.6
20260507030738 10 217 37.0 61.2 0.00 0.00 0.00 100 895.5
20260507030643 10 217 35.4 61.2 0.00 0.00 0.00 100 891.2
20260507030537 10 213 37.0 61.2 0.00 0.00 0.00 100 896.5
20260507030437 10 211 35.4 61.2 0.00 0.00 0.00 100 889.3
20260507030336 10 209 35.4 56.3 0.00 0.00 0.00 100 893.5
20260507030240 10 208 37.0 62.8 0.00 0.00 0.00 100 897.8
20260507030134 10 211 37.0 62.8 0.00 0.00 0.00 100 889.8
20260507030040 10 212 38.6 66.0 0.00 0.00 0.00 100 893.2
20260507025933 10 209 38.6 66.0 0.00 0.00 0.00 100 895.0
20260507025840 10 213 38.6 67.6 0.00 0.00 0.00 100 895.0
20260507025732 10 213 40.2 67.6 0.00 0.00 0.00 100 889.7
20260507025637 10 210 41.8 72.4 0.00 0.00 0.00 100 892.2
20260507025530 10 211 40.2 72.4 0.00 0.00 0.00 100 895.3
20260507025431 10 211 38.6 72.4 0.00 0.00 0.00 100 890.5
20260507025329 10 206 38.6 72.4 0.00 0.00 0.00 100 896.1
20260507025234 10 212 41.8 69.2 0.00 0.00 0.00 100 891.2
20260507025129 10 213 41.8 69.2 0.00 0.00 0.00 100 894.8
20260507025034 10 213 43.5 69.2 0.00 0.00 0.00 100 894.8
20260507024928 10 221 40.2 69.2 0.00 0.00 0.00 100 894.3
20260507024835 10 220 38.6 67.6 0.00 0.00 0.00 100 891.3
20260507024728 10 217 38.6 67.6 0.00 0.00 0.00 100 891.3
20260507024633 10 217 37.0 64.4 0.00 0.00 0.00 100 898.9
20260507024526 10 218 40.2 72.4 0.00 0.00 0.00 100 891.9
20260507024427 10 219 41.8 72.4 0.00 0.00 0.00 100 891.1
20260507024325 10 216 41.8 72.4 0.00 0.00 0.00 100 893.9
20260507024230 10 213 41.8 69.2 0.00 0.00 0.00 100 893.9
20260507024124 10 210 40.2 69.2 0.00 0.00 0.00 100 889.8
20260507024030 10 209 40.2 66.0 0.00 0.00 0.00 100 889.7
20260507023923 10 209 40.2 66.0 0.00 0.00 0.00 100 889.7
20260507023828 10 212 40.2 72.4 0.00 0.00 0.00 100 893.3
20260507023722 10 212 40.2 72.4 0.00 0.00 0.00 100 896.0
20260507023626 10 214 40.2 72.4 0.00 0.00 0.00 100 896.0
20260507023521 10 214 40.2 72.4 0.00 0.00 0.00 100 890.0
20260507023421 10 213 40.2 72.4 0.00 0.00 0.00 100 894.3
20260507023320 10 213 40.2 62.8 0.00 0.00 0.00 100 894.2
20260507023224 10 212 38.6 64.4 0.00 0.00 0.00 100 890.2
20260507023119 10 212 38.6 64.4 0.00 0.00 0.00 100 893.6
20260507023024 10 213 40.2 64.4 0.00 0.00 0.00 100 893.0
20260507022918 10 213 40.2 66.0 0.00 0.00 0.00 100 889.7
20260507022824 10 216 40.2 66.0 0.00 0.00 0.00 100 893.7
20260507022717 10 219 40.2 67.6 0.00 0.00 0.00 100 893.0
20260507022622 10 219 41.8 74.0 0.00 0.00 0.00 100 890.2
20260507022516 10 217 43.5 74.0 0.00 0.00 0.00 100 895.0
20260507022420 10 216 43.5 74.0 0.00 0.00 0.00 100 895.0
20260507022416 10 216 43.5 74.0 0.00 0.00 0.00 100 893.7
20260507022314 10 216 43.5 74.0 0.00 0.00 0.00 100 893.7
20260507022218 10 216 43.5 74.0 0.00 0.00 0.00 100 893.2
20260507022113 10 216 40.2 72.4 0.00 0.00 0.00 100 895.6
20260507022017 10 215 37.0 72.4 0.00 0.00 0.00 100 889.2
20260507021912 10 215 38.6 72.4 0.00 0.00 0.00 100 896.0
20260507021817 10 215 40.2 70.8 0.00 0.00 0.00 100 890.7
20260507021711 10 216 40.2 70.8 0.00 0.00 0.00 100 890.7
20260507021616 10 216 41.8 70.8 0.00 0.00 0.00 100 893.1
20260507021510 10 216 41.8 67.6 0.00 0.00 0.00 100 894.1
20260507021410 10 215 41.8 67.6 0.00 0.00 0.00 100 889.3
20260507021309 10 218 43.5 70.8 0.00 0.00 0.00 100 892.5
20260507021214 10 217 43.5 70.8 0.00 0.00 0.00 100 892.5
20260507021109 10 213 41.8 70.8 0.00 0.00 0.00 100 895.9
20260507021013 10 213 41.8 70.8 0.00 0.00 0.00 100 890.2
20260507020908 10 214 43.5 69.2 0.00 0.00 0.00 100 895.4
20260507020813 10 214 45.1 74.0 0.00 0.00 0.00 100 893.8
20260507020707 10 215 46.7 74.0 0.00 0.00 0.00 100 894.9
20260507020611 10 219 46.7 74.0 0.00 0.00 0.00 100 894.9
20260507020507 10 214 46.7 67.6 0.00 0.00 0.00 100 894.5
20260507020407 10 214 45.1 67.6 0.00 0.00 0.00 100 895.1
20260507020306 10 213 45.1 69.2 0.00 0.00 0.00 100 895.6
20260507020210 10 213 45.1 69.2 0.00 0.00 0.00 100 895.6
20260507020105 10 213 45.1 69.2 0.00 0.00 0.00 100 889.4
20260507020009 10 214 41.8 66.0 0.00 0.00 0.00 100 889.4
20260507015904 10 218 41.8 66.0 0.00 0.00 0.00 100 893.3
20260507015807 10 216 37.0 66.0 0.00 0.00 0.00 100 896.5
20260507015702 10 223 41.8 70.8 0.00 0.00 0.00 100 889.6
20260507015606 10 225 41.8 70.8 0.00 0.00 0.00 100 891.5
20260507015501 10 226 40.2 70.8 0.00 0.00 0.00 100 899.2
20260507015402 10 228 41.8 70.8 0.00 0.00 0.00 100 890.4
20260507015301 10 222 37.0 61.2 0.00 0.00 0.00 100 892.0
20260507015205 10 222 37.0 59.5 0.00 0.00 0.00 100 897.8
20260507015100 10 217 38.6 67.6 0.00 0.00 0.00 100 889.8
20260507015005 10 215 41.8 67.6 0.00 0.00 0.00 100 894.2
20260507014859 10 216 41.8 67.6 0.00 0.00 0.00 100 895.9
20260507014803 10 216 41.8 67.6 0.00 0.00 0.00 100 895.9
20260507014658 10 219 40.2 66.0 0.00 0.00 0.00 100 890.5
20260507014602 10 221 41.8 72.4 0.00 0.00 0.00 100 890.5
20260507014457 10 220 41.8 72.4 0.00 0.00 0.00 100 897.0
20260507014358 10 220 41.8 72.4 0.00 0.00 0.00 100 891.5
20260507014256 10 222 41.8 72.4 0.00 0.00 0.00 100 893.8
20260507014200 10 222 38.6 70.8 0.00 0.00 0.00 100 893.8
20260507014055 10 222 38.6 70.8 0.00 0.00 0.00 100 891.1
20260507013959 10 216 38.6 70.8 0.00 0.00 0.00 100 891.0
20260507013854 10 216 40.2 62.8 0.00 0.00 0.00 100 896.3
20260507013748 10 216 40.2 62.8 0.00 0.00 0.00 100 896.3
20260507013644 10 216 41.8 74.0 0.00 0.00 0.00 100 890.3
20260507013548 10 218 38.6 74.0 0.00 0.00 0.00 100 894.9
20260507013442 10 215 38.6 74.0 0.00 0.00 0.00 100 894.9
20260507013342 10 220 38.6 66.0 0.00 0.00 0.00 100 889.8
20260507013237 10 220 38.6 66.0 0.00 0.00 0.00 100 894.5